TimeAKST,TemperatureF,Dew PointF,Humidity,Sea Level PressureIn,VisibilityMPH,Wind Direction,Wind SpeedMPH,Gust SpeedMPH,PrecipitationIn,Events,Conditions,WindDirDegrees,DateUTC
12:53 AM,41.0,30.9,67,29.44,10.0,South,16.1,33.4,0.01,Rain,Light Rain,180,2013-03-08 09:53:00
1:53 AM,41.0,26.1,55,29.47,10.0,South,16.1,27.6,0.00,,Overcast,170,2013-03-08 10:53:00
3:53 AM,41.0,25.0,53,29.48,10.0,SSE,19.6,36.8,N/A,,Partly Cloudy,150,2013-03-08 12:53:00
4:53 AM,41.0,26.1,55,29.49,10.0,Variable,6.9,24.2,N/A,,Mostly Cloudy,0,2013-03-08 13:53:00
5:53 AM,41.0,25.0,53,29.50,10.0,Variable,5.8,-,N/A,,Overcast,0,2013-03-08 14:53:00
6:53 AM,39.9,25.0,55,29.50,10.0,South,9.2,21.9,N/A,,Overcast,170,2013-03-08 15:53:00
7:53 AM,37.9,28.9,70,29.52,10.0,Variable,3.5,-,0.00,Rain,Light Rain,0,2013-03-08 16:53:00
8:53 AM,37.9,30.0,73,29.53,10.0,Variable,6.9,-,0.00,,Overcast,0,2013-03-08 17:53:00
9:53 AM,37.0,30.9,79,29.55,7.0,Variable,4.6,-,0.01,,Overcast,0,2013-03-08 18:53:00
10:02 AM,37.4,32.0,81,29.54,5.0,Variable,3.5,-,0.00,Rain,Light Rain,0,2013-03-08 19:02:00
10:09 AM,37.4,32.0,81,29.54,10.0,Calm,Calm,-,0.00,,Overcast,0,2013-03-08 19:09:00
10:53 AM,39.0,30.9,73,29.55,10.0,Calm,Calm,-,0.00,,Overcast,0,2013-03-08 19:53:00
11:46 AM,37.4,32.0,81,29.56,6.0,Variable,3.5,-,0.00,Rain,Light Rain,0,2013-03-08 20:46:00
11:53 AM,37.9,32.0,79,29.56,10.0,Variable,3.5,-,0.00,,Overcast,0,2013-03-08 20:53:00
12:53 PM,37.9,30.0,73,29.57,3.0,South,13.8,21.9,0.02,Snow,Light Snow,170,2013-03-08 21:53:00
1:22 PM,37.4,30.2,75,29.56,10.0,SSW,6.9,-,0.00,,Mostly Cloudy,200,2013-03-08 22:22:00
1:53 PM,39.0,28.9,67,29.57,9.0,Variable,4.6,-,0.00,Rain,Light Rain,0,2013-03-08 22:53:00
2:24 PM,37.4,32.0,81,29.56,9.0,Variable,5.8,-,0.00,Rain,Light Rain,0,2013-03-08 23:24:00
2:32 PM,37.4,32.0,81,29.56,10.0,Calm,Calm,-,0.00,,Overcast,0,2013-03-08 23:32:00
2:53 PM,39.0,30.0,70,29.56,10.0,SSW,5.8,17.3,0.00,Rain,Light Rain,200,2013-03-08 23:53:00
3:14 PM,37.4,30.2,75,29.56,9.0,Variable,5.8,-,0.00,Rain,Light Rain,0,2013-03-09 00:14:00
3:23 PM,39.2,30.2,70,29.56,10.0,South,5.8,-,0.00,Rain,Light Rain,190,2013-03-09 00:23:00
3:53 PM,39.0,28.9,67,29.56,10.0,SSW,6.9,-,0.00,Rain,Light Rain,200,2013-03-09 00:53:00
4:30 PM,37.4,28.4,70,29.57,7.0,South,8.1,20.7,0.02,Rain,Light Rain,170,2013-03-09 01:30:00
4:41 PM,37.4,30.2,75,29.57,8.0,South,12.7,20.7,0.02,Snow,Light Snow,180,2013-03-09 01:41:00
4:48 PM,37.4,30.2,75,29.58,6.0,South,11.5,18.4,0.02,Snow,Light Snow,180,2013-03-09 01:48:00
4:53 PM,37.0,32.0,82,29.58,6.0,South,5.8,17.3,0.02,Snow,Light Snow,170,2013-03-09 01:53:00
5:09 PM,35.6,30.2,81,29.59,1.8,South,8.1,-,0.03,Snow,Light Snow,170,2013-03-09 02:09:00
5:18 PM,35.6,32.0,87,29.59,1.5,South,6.9,-,0.05,Snow,Light Snow,180,2013-03-09 02:18:00
5:24 PM,35.6,33.8,93,29.59,3.0,South,5.8,-,0.05,Snow,Light Snow,190,2013-03-09 02:24:00
5:48 PM,35.6,33.8,93,29.59,10.0,Calm,Calm,-,0.05,,Overcast,0,2013-03-09 02:48:00
5:53 PM,35.1,33.1,92,29.59,10.0,Calm,Calm,-,0.05,,Overcast,0,2013-03-09 02:53:00
6:13 PM,35.6,33.8,93,29.60,3.0,Calm,Calm,-,0.01,Rain,Light Rain,0,2013-03-09 03:13:00
6:53 PM,35.1,32.0,89,29.62,6.0,SSW,5.8,-,0.03,Rain,Light Rain,200,2013-03-09 03:53:00
7:53 PM,35.1,32.0,89,29.64,2.5,South,9.2,-,0.06,Snow,Light Snow,180,2013-03-09 04:53:00
8:12 PM,35.6,32.0,87,29.64,4.0,South,6.9,-,0.01,Rain,Light Rain,180,2013-03-09 05:12:00
8:53 PM,36.0,32.0,86,29.65,9.0,Variable,6.9,17.3,0.03,Rain,Light Rain,0,2013-03-09 05:53:00
9:06 PM,35.6,32.0,87,29.65,4.0,Variable,4.6,-,0.02,Rain,Rain,0,2013-03-09 06:06:00
9:53 PM,34.0,33.1,96,29.67,9.0,Calm,Calm,-,0.05,Rain,Light Rain,0,2013-03-09 06:53:00
10:53 PM,35.1,32.0,89,29.69,7.0,Calm,Calm,-,0.03,Rain,Light Rain,0,2013-03-09 07:53:00
11:05 PM,35.6,32.0,87,29.69,10.0,Calm,Calm,-,0.00,,Overcast,0,2013-03-09 08:05:00
11:24 PM,35.6,32.0,87,29.69,10.0,South,3.5,-,0.00,Rain,Light Rain,170,2013-03-09 08:24:00
11:40 PM,35.6,32.0,87,29.70,6.0,Variable,5.8,-,0.00,Rain,Light Rain,0,2013-03-09 08:40:00
11:53 PM,36.0,32.0,86,29.70,7.0,Calm,Calm,-,0.01,Rain,Light Rain,0,2013-03-09 08:53:00